Location: Wolf Lake
(46.8518°N, 80.6381°W)
Time: 11:04:40
(UTC-04:00)

ISS - Pass Details

Date: 14 March 2026
Orbit: 416 x 425 km, 51.6° (Epoch: 19 April)

Event Time Altitude Azimuth Distance (km) Brightness Sun altitude
Rises 20:04:32 0° 229° (SW) 2,378 0.8 -7.2°
Reaches altitude 10° 20:06:40 10° 224° (SW) 1,514 -0.3 -7.6°
Maximum altitude 20:09:58 51° 147° (SSE) 541 -3.4 -8.2°
Drops below altitude 10° 20:13:18 10° 71° (ENE) 1,517 -1.5 -8.7°
Enters shadow 20:13:19 10° 70° (ENE) 1,525 -1.5 -8.7°
